Regional Weather Roundup
Issued by NWS Newport/Morehead, NC

Current Version | Previous Version | Graphics & Text | Print | Product List | Glossary Off
Versions: 1 2 3 4 5 6 7 8 9 10 11 12 13 14 15 16 17 18 19 20 21 22 23 24 25 26 27 28 29 30 31 32 33 34 35 36 37 38 39 40 41 42 43 44 45 46 47 48 49 50

000
ASUS42 KMHX 040113
RWRMHX
WEATHER ROUNDUP FOR EASTERN NORTH CAROLINA
NATIONAL WEATHER SERVICE NEWPORT/MOREHEAD CITY NC
900 PM EDT FRI JUL 03 2015

NOTE: "FAIR" INDICATES FEW OR NO CLOUDS BELOW 12,000 FEET
WITH NO SIGNIFICANT WEATHER AND/OR OBSTRUCTIONS TO VISIBILITY

NCZ015>017-031-032-045>047-102-103-040200-
NORTH COAST

CITY           SKY/WX    TMP DP  RH WIND       PRES   REMARKS
EDENTON        LGT RAIN  75  72  89 SW5       29.88F
ELIZABETH CITY TSTM      74  73  97 NE13      29.88R FOG
KITTY HAWK     DRIZZLE   74  72  91 CALM      29.88F
MANTEO         CLOUDY    76  72  86 SW6       29.89F

$$

NCZ045>047-081-094-103-104-040200-
CENTRAL COAST

CITY           SKY/WX    TMP DP  RH WIND       PRES   REMARKS
FRISCO         MOCLDY    77  73  87 SW12      29.91F
SWANQUARTER      N/A     79 N/A N/A SW13G23   29.85S

$$

NCZ095-097-098-100-101-040200-
SOUTHERN COAST

CITY           SKY/WX    TMP DP  RH WIND       PRES   REMARKS
BEAUFORT       CLOUDY    79  77  94 SW15      29.90S
CEDAR ISLAND     N/A     77 N/A N/A S10       29.94S
JACKSONVILLE   NOT AVBL
PINEY ISLAND   CLOUDY   N/A N/A N/A S8        29.89F
WILMINGTON     CLOUDY    76  72  87 SW13      29.91S


$$

NCZ011>013-027>030-043-044-078>080-089-090>093-098-040200-
COASTAL PLAIN

CITY           SKY/WX    TMP DP  RH WIND       PRES   REMARKS
AHOSKIE        MOCLDY   N/A N/A N/A CALM      29.88S
CLINTON        PTCLDY    78  75  91 SW6       29.89R
ELIZABETHTOWN  CLEAR     78  74  87 S6        29.90S
GOLDSBORO      PTCLDY    75  74  97 S2        29.86R
GREENVILLE     MOCLDY    73  73 100 CALM      29.90S
HAVELOCK       MOCLDY    78  73  84 SW9       29.90S
KENANSVILLE    PTCLDY    75  73  91 CALM      29.90R
KINSTON        PTCLDY    77  73  88 S5        29.89S
NEW BERN       MOCLDY    77  74  90 S5        29.90S
RICHLANDS      PTCLDY    75  70  83 SW8       29.90R
ROCKY MOUNT    CLOUDY    76  73  91 SW3       29.88R
WASHINGTON     CLOUDY    74  72  92 CALM      29.88S
WHITEVILLE     PTCLDY    75  72  88 S9        29.92R

$$

AMZ130-135-150-152-154-156-158-170-250-252-270-ANZ085-086-088-633-658-670-040200-
MARINE OBSERVATIONS

STATION/POSITION TIME  TEMP    WIND        PRES    WAVE   SWELL
                       AIR SEA DIR/SP/G            HT/PER HT/PER
                 (UTC) (F)     (DEG/KT/KT) (MB)    (FT/S) (FT/S)
CHESAPEAKE LIGHT 0100   76     110/ 18/ 19 1013.3
64 E VA BEACH    0050   77 78  110/ 12/ 16 1013.1    4/ 8   3/ 8
DUCK             0000   77 77  120/ 14/ 16 1012.1
2 E DUCK         0011      78                N/A     3/ 9
OREGON INLET     0000   80 82  200/ 20/ 22 1012.6
13E OREGON INLT  0100      72                N/A     3/ 8   2/15
HATTERAS CG      0000   78 79  220/ 11/ 17 1012.9
DIAMOND BUOY     0050   81 81  230/ 19/ 23 1012.6    6/ 6   2/ 9
CAPE LOOKOUT     0100   80     220/ 15/ 20 1012.4
BEAUFORT LAB     0000   80 81  220/ 11/ 19 1012.0
30 SE NEW RVR IN 0008   80 80  230/ 17/ 23 1013.5
27 SE WRIGHTSVLE 0000      80  250/ 17/ 19   N/A
5 SE WRIGHTSVLE  0008   79 79  230/ 17/ 23 1012.3
225 S CAPE HAT   0050   81 80  230/ 14/ 16 1018.9    5/ 6   3/ 8
41 SE CHARLESTON 0050   81 82  210/ 14/ 16 1016.0    3/ 5   2/10

$$


USA.gov is the U.S. government's official web portal to all federal, state and local government web resources and services.